Regional Weather Roundup
Issued by NWS Bismarck, ND

Home | Current Version | Previous Version | Text Only | Print | Product List | Glossary On
Versions: 1 2 3 4 5 6 7 8 9 10 11 12 13 14 15 16 17 18 19 20 21 22 23 24 25 26 27 28 29 30 31 32 33 34 35 36 37 38 39 40 41 42 43 44 45 46 47 48 49 50
000
ASUS43 KBIS 291210
RWRBIS

NWR BROADCAST TEXT
NATIONAL WEATHER SERVICE BISMARCK ND
700 AM CDT TUE JUL 29 2014

NOTE: "FAIR" INDICATES FEW OR NO CLOUDS BELOW 12,000 FEET WITH NO
SIGNIFICANT WEATHER AND/OR OBSTRUCTIONS TO VISIBILITY.


CITY           SKY/WX    TMP DP  RH WIND       PRES   REMARKS
WILLISTON      CLEAR     54  51  90 CALM      30.20S FOG
MINOT          CLEAR     58  54  86 SW6       30.20F
MINOT AFB      CLEAR     54  54  99 W1        30.20S
BISMARCK       CLEAR     51  49  92 CALM      30.24S
DICKINSON      CLEAR     52  49  89 S6        30.22S
GARRISON         N/A     57  54  89 CALM      30.22F
HETTINGER ARPT CLEAR     48  44  86 CALM      30.25S
JAMESTOWN      CLEAR     51  49  92 W3        30.21S
CARRINGTON     PTSUNNY   54  54 100 W6        30.23R
CROSBY           N/A     54  54 100 CALM      30.21S
HARVEY         FAIR      48  48 100 W6        30.22S
HAZEN          CLOUDY    54  50  87 CALM      30.23S
LINTON         FAIR      46  46 100 E5        30.23S
MANDAN         FAIR      52  48  87 E5        30.24S
RUGBY          FAIR      50  50 100 SW5       30.21S
STANLEY        PTSUNNY   57  57 100 CALM      30.23S
TIOGA          FOG       50  50 100 E5        30.25S VSB 1/4
WATFORD CITY   FAIR      52  50  93 CALM      30.19F
$$

CITY           SKY/WX    TMP DP  RH WIND       PRES   REMARKS
GRAND FORKS    PTCLDY    53  51  93 CALM      30.17S
GRAND FORKS AF CLEAR     55  55  99 W1        30.18S
DEVILS LAKE    CLEAR     55  50  82 CALM      30.20R
FARGO          CLEAR     54  50  86 CALM      30.18S
CANDO          FAIR      50  48  93 NW5       30.21S
CAVALIER       FAIR      54  52  94 W5        30.17S
GRAFTON        FAIR      55  54  94 NW6       30.17S
GWINNER        SUNNY     55  54  94 W6        30.22R
LANGDON        FAIR      48  46  93 NW5       30.20S
ROLLA          FAIR      50  50 100 CALM      30.22F
WALHALLA         N/A     54  54 100 CALM        N/A
$$

CITY           SKY/WX    TMP DP  RH WIND       PRES   REMARKS
ABERDEEN       CLEAR     46  45  96 CALM      30.23R
MOBRIDGE       CLEAR     51  50  96 E3        30.20F
BUFFALO          N/A     56  51  84 CALM      30.19S
RAPID CITY     MOCLDY    55  50  83 W3        30.27R
GLASGOW        PTCLDY    61  49  64 E6        30.20S
SIDNEY         CLEAR     54  48  82 CALM      30.21S
WOLF POINT     MOCLDY    54  48  80 CALM      30.21R
GLENDIVE       PTCLDY    54  48  82 CALM      30.22S
MILES CITY     PTCLDY    65  51  60 SE6       30.21R
BAKER          CLEAR     52  49  89 E5        30.24R
$$

CITY           SKY/WX    TMP DP  RH WIND       PRES   REMARKS
BILLINGS       MOCLDY    67  44  43 N9        30.21R
GREAT FALLS    MOCLDY    57  49  74 W7        30.18R
REGINA         CLEAR     57  55  94 SE3       30.23R
ESTEVAN        PTCLDY    55  55 100 E2        30.22S FOG
$$




USA.gov is the U.S. government's official web portal to all federal, state and local government web resources and services.